Regional Weather Roundup
Issued by NWS

Home | Current Version | Previous Version | Text Only | Print | Product List | Glossary On
Versions: 1 2 3 4 5 6 7 8 9 10 11 12 13 14 15 16 17 18 19 20 21 22 23 24 25 26 27 28 29 30 31 32 33 34 35 36 37 38 39 40 41 42 43 44 45 46 47 48 49 50
000
ASUS43 KIND 210000
RWRIN

WEATHER ROUNDUP FOR INDIANA
NATIONAL WEATHER SERVICE INDIANAPOLIS IN
800 PM EDT SUN AUG 20 2017

NOTE: "FAIR" INDICATES FEW OR NO CLOUDS BELOW 12,000 FEET WITH NO
SIGNIFICANT WEATHER AND/OR OBSTRUCTIONS TO VISIBILITY.

* - STATION DOES NOT REPORT WEATHER SUCH AS PRECIPITATION OR FOG.

+ - STATION NOT QUALITY CONTROLLED BY THE NATIONAL WEATHER SERVICE.
    USE DATA WITH CAUTION...ESPECIALLY DEWPOINT AND RELATIVE
    HUMIDITY OBSERVATIONS.

INZ001>003-010>013-019-020-210100-
NORTHWEST INDIANA

CITY           SKY/WX    TMP DP  RH WIND       PRES   REMARKS
GARY /AIRPORT/ CLOUDY    82  70  65 S3        30.03R
MONTICELLO +   PTCLDY    82  68  61 CALM      30.02S
6HR MIN TEMP:  82; 6HR MAX TEMP:  88;


$$

LMZ046-743>745-210100-
SOUTHERN LAKE MICHIGAN

STATION/POSITION TIME  TEMP    WIND        PRES    WAVE
                       AIR SEA DIR/SP/G            HT
                 (UTC) (F)     (DEG/KT/KT) (MB)    (FT)
BURNS HARBOR     2340   83     190/  8/ 10 1016.9R
MICHIGAN CITY    2330   82     140/  7/  8   N/A
5NW MICH CITY    2350   79 76  180/  4/  6   N/A     1

$$

INZ004-005-014>016-021>024-210100-
NORTH CENTRAL INDIANA

CITY           SKY/WX    TMP DP  RH WIND       PRES   REMARKS
GOSHEN         CLOUDY    79  67  66 S3        30.06R
6HR MIN TEMP:  79; 6HR MAX TEMP:  85;

SOUTH BEND     CLOUDY    80  66  62 S7        30.05S
6HR MIN TEMP:  80; 6HR MAX TEMP:  86; 6HR PCP:  0.01;


$$

INZ006>009-017-018-025>027-210100-
NORTHEAST INDIANA

CITY           SKY/WX    TMP DP  RH WIND       PRES   REMARKS
FORT WAYNE     MOCLDY    79  64  60 W5        30.07R
6HR MIN TEMP:  78; 6HR MAX TEMP:  87;


$$

INZ028-029-035-036-043>045-051>053-210100-
WEST CENTRAL INDIANA

CITY           SKY/WX    TMP DP  RH WIND       PRES   REMARKS
LAFAYETTE      CLOUDY    83  67  58 SE3       30.02S
6HR MIN TEMP:  83; 6HR MAX TEMP:  88;

TERRE HAUTE    CLEAR     85  69  58 SE5       30.03S
6HR MIN TEMP:  85; 6HR MAX TEMP:  91;


$$

INZ030>032-037>040-046>048-054>057-064-065-210100-
CENTRAL INDIANA

CITY           SKY/WX    TMP DP  RH WIND       PRES   REMARKS
COLUMBUS       CLEAR     86  63  45 CALM      30.06R
GREENWOOD *+   CLEAR     85  65  51 SE6       30.07R
INDIANAPOLIS   MOCLDY    85  66  53 S9        30.05R
6HR MIN TEMP:  85; 6HR MAX TEMP:  91;

-EAGLE CREEK   CLOUDY    87  64  46 CALM      30.04S
6HR MIN TEMP:  87; 6HR MAX TEMP:  91;

KOKOMO +       CLOUDY    79  70  74 E6        30.07S
6HR MIN TEMP:  79; 6HR MAX TEMP:  87; 6HR PCP: TRACE;

MT COMFORT *+  PTCLDY    82  68  61 SE5       30.07S
SHELBYVILLE    CLEAR     83  70  64 SE5       30.06R
6HR MIN TEMP:  82; 6HR MAX TEMP:  90;


$$

INZ033-034-041-042-049-050-058-059-210100-
EAST CENTRAL INDIANA

CITY           SKY/WX    TMP DP  RH WIND       PRES   REMARKS
MUNCIE         CLEAR     79  73  82 NW3       30.08R
6HR MIN TEMP:  79; 6HR MAX TEMP:  89;

RICHMOND +     CLEAR     79  68  69 CALM      30.11R

$$

INZ060-061-067>069-081>083-085>088-210100-
SOUTHWEST INDIANA

CITY           SKY/WX    TMP DP  RH WIND       PRES   REMARKS
EVANSVILLE     CLOUDY    87  70  56 S6        30.03S
6HR MIN TEMP:  87; 6HR MAX TEMP:  94;

HUNTINGBURG +  CLOUDY    85  74  69 MISG      30.04F
6HR MIN TEMP:  85; 6HR MAX TEMP:  91;


$$

INZ062-063-066-070>080-084-089>092-210100-
SOUTH CENTRAL AND SOUTHEAST INDIANA

CITY           SKY/WX    TMP DP  RH WIND       PRES   REMARKS
BLOOMINGTON    PTCLDY    82  67  60 S9        30.07R
6HR MIN TEMP:  82; 6HR MAX TEMP:  92;

MADISON *+     CLOUDY    79  72  78 CALM      30.10R
SEYMOUR +      RAIN      82  70  65 SW5       30.06R

$$





USA.gov is the U.S. government's official web portal to all federal, state and local government web resources and services.